Weather History for KHFJ - December, 2013

Change the Weather History Date:

Thursday, December 26, 2013

  Actual Average (KJLN) Record (KJLN)
Temperature  
Mean Temperature 36 °F 35 °F  
Max Temperature 50 °F 45 °F 71 °F (2008)
Min Temperature 21 °F 26 °F 0 °F (1983)
Degree Days  
Heating Degree Days 30 30  
Month to date heating degree days 711  
Since 1 July heating degree days 1468  
Cooling Degree Days 0 0  
Month to date cooling degree days 0  
Year to date cooling degree days 1698  
Moisture  
Dew Point 27 °F    
Average Humidity 78    
Maximum Humidity 100    
Minimum Humidity 37    
Precipitation  
Precipitation 0.00 in 0.09 in 0.61 in (1959)
Month to date precipitation 2.45  
Year to date precipitation 46.18  
Sea Level Pressure  
Sea Level Pressure 30.32 in    
Wind  
Wind Speed 6 mph (SSW)    
Max Wind Speed 14 mph    
Max Gust Speed 20 mph    
Visibility 6 miles    
Events Fog    
T = Trace of Precipitation, MM = Missing Value Source: NWS Daily Summary

Daily Weather History Graph

Daily Weather History Graph

Search for Another Location

Airport or City:

Trip Planner

Search our weather history database for the weather conditions in past years. The results will help you decide how hot, cold, wet, or windy it might be!

Date:

Astronomy

Dec. 26, 2013 Rise Set
Actual Time 7:27 AM CST 5:06 PM CST
Civil Twilight 6:58 AM CST 5:35 PM CST
Nautical Twilight 6:26 AM CST 6:07 PM CST
Astronomical Twilight 5:54 AM CST 6:39 PM CST
Moon 1:03 AM CST (12/26) 12:36 PM CST (12/26)
Length of Visible Light 10h 36m
Length of Day
9h 38m
Last Quarter, 38% of the Moon is Illuminated
Dec 26
Last Quarter
Jan 1
New
Jan 7
First Quarter
Jan 15
Full
Jan 23
Last Quarter

Hourly Weather History & Observations

Time (CST) Temp. Windchill Dew Point Humidity Pressure Visibility Wind Dir Wind Speed Gust Speed Precip Events Conditions
12:15 AM 28.4 °F 24.6 °F 28.4 °F 100% 30.35 in 0.2 mi SW 3.5 mph - N/A Fog Light Freezing Fog
12:35 AM 28.4 °F 24.6 °F 28.4 °F 100% 30.35 in 0.2 mi SW 3.5 mph - N/A Fog Light Freezing Fog
12:55 AM 26.6 °F 20.0 °F 26.6 °F 100% 30.35 in 0.2 mi South 5.8 mph - N/A Fog Light Freezing Fog
1:15 AM 26.6 °F 21.2 °F 26.6 °F 100% 30.35 in 0.2 mi South 4.6 mph - N/A Fog Light Freezing Fog
1:35 AM 26.6 °F 21.2 °F 26.6 °F 100% 30.34 in 0.2 mi South 4.6 mph - N/A Fog Light Freezing Fog
1:55 AM 26.6 °F 21.2 °F 26.6 °F 100% 30.34 in 1.5 mi South 4.6 mph - N/A   Scattered Clouds
2:15 AM 26.6 °F 22.6 °F 26.6 °F 100% 30.35 in 1.5 mi South 3.5 mph - N/A   Mist
2:35 AM 26.6 °F 21.2 °F 26.6 °F 100% 30.35 in 1.5 mi South 4.6 mph - N/A   Scattered Clouds
2:55 AM 26.6 °F 22.6 °F 26.6 °F 100% 30.35 in 1.2 mi South 3.5 mph - N/A   Overcast
3:15 AM 26.6 °F 22.6 °F 26.6 °F 100% 30.35 in 0.2 mi South 3.5 mph - N/A Fog Light Freezing Fog
3:35 AM 26.6 °F - 26.6 °F 100% 30.35 in 0.2 mi Calm Calm - N/A Fog Light Freezing Fog
3:55 AM 24.8 °F 20.5 °F 23.0 °F 93% 30.34 in 0.2 mi SSE 3.5 mph - N/A Fog Light Freezing Fog
4:15 AM 23.0 °F 18.4 °F 23.0 °F 100% 30.34 in 0.2 mi SSE 3.5 mph - N/A Fog Light Freezing Fog
4:35 AM 23.0 °F - 23.0 °F 100% 30.34 in 0.2 mi Calm Calm - N/A Fog Light Freezing Fog
4:55 AM 23.0 °F - 23.0 °F 100% 30.34 in 0.2 mi Calm Calm - N/A Fog Light Freezing Fog
5:15 AM 23.0 °F - 21.2 °F 93% 30.34 in 0.2 mi Calm Calm - N/A Fog Light Freezing Fog
5:35 AM 21.2 °F 16.4 °F 21.2 °F 100% 30.34 in 0.2 mi SSE 3.5 mph - N/A Fog Light Freezing Fog
5:55 AM 23.0 °F 17.0 °F 21.2 °F 93% 30.34 in 0.2 mi SSE 4.6 mph - N/A Fog Light Freezing Fog
6:15 AM 26.6 °F 21.2 °F 24.8 °F 93% 30.34 in 2.0 mi South 4.6 mph - N/A   Mostly Cloudy
6:35 AM 26.6 °F - 26.6 °F 100% 30.35 in 2.0 mi Calm Calm - N/A   Overcast
6:55 AM 23.0 °F - 23.0 °F 100% 30.36 in 1.8 mi Calm Calm - N/A   Overcast
7:15 AM 26.6 °F 22.6 °F 24.8 °F 93% 30.35 in 2.0 mi SSE 3.5 mph - N/A   Overcast
7:35 AM 26.6 °F 21.2 °F 24.8 °F 93% 30.35 in 1.2 mi South 4.6 mph - N/A   Mostly Cloudy
7:55 AM 26.6 °F 22.6 °F 26.6 °F 100% 30.36 in 2.0 mi South 3.5 mph - N/A   Clear
8:15 AM 28.4 °F 24.6 °F 26.6 °F 93% 30.36 in 2.5 mi South 3.5 mph - N/A   Clear
8:35 AM 28.4 °F 23.3 °F 28.4 °F 100% 30.36 in 2.5 mi South 4.6 mph - N/A   Clear
8:55 AM 30.2 °F 24.3 °F 30.2 °F 100% 30.36 in 2.5 mi South 5.8 mph - N/A   Clear
9:15 AM 32.0 °F 25.6 °F 32.0 °F 100% 30.36 in 3.0 mi SSW 6.9 mph - N/A   Clear
9:35 AM 32.0 °F 25.6 °F 32.0 °F 100% 30.36 in 4.0 mi South 6.9 mph - N/A   Clear
9:55 AM 33.8 °F 27.0 °F 33.8 °F 100% 30.36 in 7.0 mi South 8.1 mph - N/A   Clear
10:15 AM 33.8 °F 27.0 °F 33.8 °F 100% 30.36 in 10.0 mi South 8.1 mph - N/A   Clear
10:35 AM 37.4 °F 31.4 °F 33.8 °F 87% 30.36 in 10.0 mi South 8.1 mph - N/A   Clear
10:55 AM 37.4 °F 30.3 °F 33.8 °F 87% 30.35 in 10.0 mi South 10.4 mph - N/A   Clear
11:15 AM 42.8 °F 37.0 °F 30.2 °F 61% 30.35 in 10.0 mi SSW 10.4 mph - N/A   Clear
11:35 AM 42.8 °F 37.0 °F 30.2 °F 61% 30.35 in 10.0 mi South 10.4 mph - N/A   Clear
11:55 AM 44.6 °F 38.4 °F 28.4 °F 53% 30.34 in 10.0 mi SW 12.7 mph - N/A   Clear
12:15 PM 44.6 °F 39.2 °F 28.4 °F 53% 30.33 in 10.0 mi SSW 10.4 mph - N/A   Clear
12:35 PM 46.4 °F 40.7 °F 26.6 °F 46% 30.32 in 10.0 mi SSW 12.7 mph - N/A   Clear
12:55 PM 46.4 °F 41.1 °F 28.4 °F 50% 30.32 in 10.0 mi SSW 11.5 mph - N/A   Clear
1:15 PM 46.4 °F 40.7 °F 28.4 °F 50% 30.31 in 10.0 mi SW 12.7 mph - N/A   Clear
1:35 PM 46.4 °F 40.4 °F 28.4 °F 50% 30.30 in 10.0 mi SSW 13.8 mph - N/A   Clear
1:55 PM 46.4 °F 40.4 °F 28.4 °F 50% 30.29 in 10.0 mi SSW 13.8 mph 19.6 mph N/A   Clear
2:15 PM 48.2 °F - 26.6 °F 43% 30.28 in 10.0 mi SW 13.8 mph - N/A   Clear
2:35 PM 50.0 °F - 24.8 °F 37% 30.28 in 10.0 mi SW 12.7 mph - N/A   Clear
2:55 PM 50.0 °F - 26.6 °F 40% 30.28 in 10.0 mi SW 13.8 mph - N/A   Clear
3:15 PM 50.0 °F - 24.8 °F 37% 30.28 in 10.0 mi SW 12.7 mph - N/A   Clear
3:35 PM 48.2 °F - 26.6 °F 43% 30.27 in 10.0 mi SSW 11.5 mph 18.4 mph N/A   Clear
3:55 PM 48.2 °F - 26.6 °F 43% 30.27 in 10.0 mi SSW 12.7 mph - N/A   Clear
4:15 PM 46.4 °F 41.5 °F 26.6 °F 46% 30.26 in 10.0 mi SSW 10.4 mph 17.3 mph N/A   Clear
4:35 PM 44.6 °F 38.8 °F 28.4 °F 53% 30.26 in 10.0 mi SSW 11.5 mph - N/A   Clear
4:55 PM 42.8 °F 37.5 °F 28.4 °F 57% 30.27 in 10.0 mi SSW 9.2 mph - N/A   Clear
5:15 PM 41.0 °F 35.2 °F 28.4 °F 61% 30.26 in 10.0 mi South 9.2 mph - N/A   Clear
5:35 PM 41.0 °F 35.2 °F 28.4 °F 61% 30.27 in 10.0 mi SSW 9.2 mph - N/A   Clear
5:55 PM 39.2 °F 33.6 °F 28.4 °F 65% 30.27 in 10.0 mi SSW 8.1 mph - N/A   Clear
6:15 PM 39.2 °F 33.6 °F 28.4 °F 65% 30.27 in 10.0 mi South 8.1 mph - N/A   Clear
6:35 PM 37.4 °F 32.1 °F 28.4 °F 70% 30.28 in 10.0 mi SSW 6.9 mph - N/A   Clear
6:55 PM 37.4 °F 32.1 °F 28.4 °F 70% 30.28 in 10.0 mi South 6.9 mph - N/A   Clear
7:15 PM 37.4 °F 32.1 °F 28.4 °F 70% 30.29 in 10.0 mi South 6.9 mph - N/A   Clear
7:35 PM 35.6 °F 29.2 °F 26.6 °F 70% 30.29 in 10.0 mi SSW 8.1 mph - N/A   Clear
7:55 PM 35.6 °F 29.9 °F 26.6 °F 70% 30.29 in 10.0 mi South 6.9 mph - N/A   Clear
8:15 PM 35.6 °F 29.2 °F 26.6 °F 70% 30.30 in 10.0 mi South 8.1 mph - N/A   Clear
8:35 PM 35.6 °F 28.6 °F 26.6 °F 70% 30.30 in 10.0 mi South 9.2 mph - N/A   Clear
8:55 PM 33.8 °F 27.7 °F 26.6 °F 75% 30.31 in 10.0 mi SSW 6.9 mph - N/A   Clear
9:15 PM 35.6 °F 28.6 °F 26.6 °F 70% 30.31 in 10.0 mi South 9.2 mph - N/A   Clear
9:35 PM 35.6 °F 29.9 °F 26.6 °F 70% 30.32 in 10.0 mi SSW 6.9 mph - N/A   Clear
9:55 PM 33.8 °F 27.7 °F 26.6 °F 75% 30.32 in 10.0 mi SSW 6.9 mph - N/A   Clear
10:15 PM 33.8 °F 28.6 °F 26.6 °F 75% 30.33 in 10.0 mi SSW 5.8 mph - N/A   Clear
10:35 PM 33.8 °F 28.6 °F 26.6 °F 75% 30.33 in 10.0 mi SSW 5.8 mph - N/A   Clear
10:55 PM 32.0 °F 24.2 °F 26.6 °F 80% 30.33 in 10.0 mi SSW 9.2 mph - N/A   Clear
11:15 PM 32.0 °F 24.8 °F 26.6 °F 80% 30.33 in 10.0 mi SSW 8.1 mph - N/A   Clear
11:35 PM 32.0 °F 24.8 °F 26.6 °F 80% 30.33 in 10.0 mi SSW 8.1 mph - N/A   Clear
11:55 PM 32.0 °F 26.4 °F 26.6 °F 80% 30.34 in 10.0 mi SSW 5.8 mph - N/A   Clear